Year,Month,Day,Hour,Minute,Value (Times are PST for temperature in C)
2023,10,18,09,12,11.90
2023,10,18,09,13,11.90
2023,10,18,09,14,11.90
2023,10,18,09,15,12.00
2023,10,18,09,16,12.00
2023,10,18,09,17,12.00
2023,10,18,09,18,12.00
2023,10,18,09,19,12.00
2023,10,18,09,20,12.00
2023,10,18,09,21,12.00
2023,10,18,09,22,12.00
2023,10,18,09,23,12.00
2023,10,18,09,24,12.00
2023,10,18,09,25,12.10
2023,10,18,09,26,12.10
2023,10,18,09,27,12.10
2023,10,18,09,28,12.10
2023,10,18,09,29,12.10
2023,10,18,09,30,12.10
2023,10,18,09,31,12.10
2023,10,18,09,32,12.10
2023,10,18,09,33,12.20
2023,10,18,09,34,12.20
2023,10,18,09,35,12.20
2023,10,18,09,36,12.20
2023,10,18,09,37,12.20
2023,10,18,09,38,12.20
2023,10,18,09,39,12.30
2023,10,18,09,40,12.30
2023,10,18,09,41,12.30
2023,10,18,09,42,12.30
2023,10,18,09,43,12.30
2023,10,18,09,44,12.30
2023,10,18,09,45,12.30
2023,10,18,09,46,12.30
2023,10,18,09,47,12.30
2023,10,18,09,48,12.30
2023,10,18,09,49,12.40
2023,10,18,09,50,12.40
2023,10,18,09,51,12.40
2023,10,18,09,52,12.40
2023,10,18,09,53,12.40
2023,10,18,09,54,12.40
2023,10,18,09,55,12.50
2023,10,18,09,56,12.50
2023,10,18,09,57,12.50
2023,10,18,09,58,12.60
2023,10,18,09,59,12.60
2023,10,18,10,00,12.60
2023,10,18,10,01,12.60
2023,10,18,10,02,12.60
2023,10,18,10,03,12.60
2023,10,18,10,04,12.60
2023,10,18,10,05,12.60
2023,10,18,10,06,12.60
2023,10,18,10,07,12.60
2023,10,18,10,08,12.70
2023,10,18,10,09,12.70
2023,10,18,10,10,12.70
2023,10,18,10,11,12.70
2023,10,18,10,12,12.70
2023,10,18,10,13,12.70
2023,10,18,10,14,12.80
2023,10,18,10,15,12.80
2023,10,18,10,16,12.80
2023,10,18,10,17,12.80
2023,10,18,10,18,12.80
2023,10,18,10,19,12.80
2023,10,18,10,20,12.80
2023,10,18,10,21,12.80
2023,10,18,10,22,12.80
2023,10,18,10,23,12.90
2023,10,18,10,24,12.90
2023,10,18,10,25,12.90
2023,10,18,10,26,12.90
2023,10,18,10,27,12.90
2023,10,18,10,28,12.90
2023,10,18,10,29,12.90
2023,10,18,10,30,12.90
2023,10,18,10,31,12.90
2023,10,18,10,32,12.90
2023,10,18,10,33,13.00
2023,10,18,10,34,13.00
2023,10,18,10,35,13.00
2023,10,18,10,36,13.00
2023,10,18,10,37,13.10
2023,10,18,10,38,13.10
2023,10,18,10,39,13.10
2023,10,18,10,40,13.10
2023,10,18,10,41,13.10
2023,10,18,10,42,13.10
2023,10,18,10,43,13.10
2023,10,18,10,44,13.20
2023,10,18,10,45,13.20
2023,10,18,10,46,13.20
2023,10,18,10,47,13.30
2023,10,18,10,48,13.30
2023,10,18,10,49,13.30
2023,10,18,10,50,13.30
2023,10,18,10,51,13.30
2023,10,18,10,52,13.40
2023,10,18,10,53,13.40
2023,10,18,10,54,13.40
2023,10,18,10,55,13.40
2023,10,18,10,56,13.40
2023,10,18,10,57,13.40
2023,10,18,10,58,13.50
2023,10,18,10,59,13.50
2023,10,18,11,00,13.50
2023,10,18,11,01,13.50
2023,10,18,11,02,13.50
2023,10,18,11,03,13.60
2023,10,18,11,04,13.50
2023,10,18,11,05,13.50
2023,10,18,11,06,13.60
2023,10,18,11,07,13.60
2023,10,18,11,08,13.60
2023,10,18,11,09,13.70
2023,10,18,11,10,13.70
2023,10,18,11,11,13.70
2023,10,18,11,12,13.80
2023,10,18,11,13,13.80
2023,10,18,11,14,13.80
2023,10,18,11,15,13.90
2023,10,18,11,16,13.90
2023,10,18,11,17,13.90
2023,10,18,11,18,14.00
2023,10,18,11,19,14.00
2023,10,18,11,20,14.10
2023,10,18,11,21,14.10
2023,10,18,11,22,14.10
2023,10,18,11,23,14.20
2023,10,18,11,24,14.20
2023,10,18,11,25,14.20
2023,10,18,11,26,14.20
2023,10,18,11,27,14.30
2023,10,18,11,28,14.30
2023,10,18,11,29,14.30
2023,10,18,11,30,14.40
2023,10,18,11,31,14.40
2023,10,18,11,32,14.40
2023,10,18,11,33,14.40
2023,10,18,11,34,14.40
2023,10,18,11,35,14.40
2023,10,18,11,36,14.40
2023,10,18,11,37,14.40
2023,10,18,11,38,14.40
2023,10,18,11,39,14.40
2023,10,18,11,40,14.40
2023,10,18,11,41,14.40
2023,10,18,11,42,14.50
2023,10,18,11,43,14.50
2023,10,18,11,44,14.50
2023,10,18,11,45,14.50
2023,10,18,11,46,14.50
2023,10,18,11,47,14.60
2023,10,18,11,48,14.60
2023,10,18,11,49,14.60
2023,10,18,11,50,14.60
2023,10,18,11,51,14.60
2023,10,18,11,52,14.60
2023,10,18,11,53,14.70
2023,10,18,11,54,14.70
2023,10,18,11,55,14.70
2023,10,18,11,56,14.70
2023,10,18,11,57,14.70
2023,10,18,11,58,14.70
2023,10,18,11,59,14.70
2023,10,18,12,00,14.70
2023,10,18,12,01,14.70
2023,10,18,12,02,14.70
2023,10,18,12,03,14.70
2023,10,18,12,04,14.70
2023,10,18,12,05,14.70
2023,10,18,12,06,14.70
2023,10,18,12,07,14.70
2023,10,18,12,08,14.70
2023,10,18,12,09,14.80
2023,10,18,12,10,14.80
2023,10,18,12,11,14.90
2023,10,18,12,12,14.90
2023,10,18,12,13,14.90
2023,10,18,12,14,14.90
2023,10,18,12,15,14.90
2023,10,18,12,16,14.90
2023,10,18,12,17,15.00
2023,10,18,12,18,15.00
2023,10,18,12,19,15.00
2023,10,18,12,20,15.00
2023,10,18,12,21,15.10
2023,10,18,12,22,15.10
2023,10,18,12,23,15.10
2023,10,18,12,24,15.20
2023,10,18,12,25,15.20
2023,10,18,12,26,15.20
2023,10,18,12,27,15.20
2023,10,18,12,28,15.30
2023,10,18,12,29,15.30
2023,10,18,12,30,15.30
2023,10,18,12,31,15.30
2023,10,18,12,32,15.40
2023,10,18,12,33,15.50
2023,10,18,12,34,15.50
2023,10,18,12,35,15.60
2023,10,18,12,36,15.50
2023,10,18,12,37,15.60
2023,10,18,12,38,15.60
2023,10,18,12,39,15.70
2023,10,18,12,40,15.70
2023,10,18,12,41,15.80
2023,10,18,12,42,15.80
2023,10,18,12,43,15.80
2023,10,18,12,44,15.70
2023,10,18,12,45,15.70
2023,10,18,12,46,15.60
2023,10,18,12,47,15.60
2023,10,18,12,48,15.60
2023,10,18,12,49,15.70
2023,10,18,12,50,15.70
2023,10,18,12,51,15.70
2023,10,18,12,52,15.70
2023,10,18,12,53,15.70
2023,10,18,12,54,15.70
2023,10,18,12,55,15.70
2023,10,18,12,56,15.70
2023,10,18,12,57,15.80
2023,10,18,12,58,15.80
2023,10,18,12,59,15.80
2023,10,18,13,00,15.80
2023,10,18,13,01,15.80
2023,10,18,13,02,15.80
2023,10,18,13,03,15.80
2023,10,18,13,04,15.80
2023,10,18,13,05,15.80
2023,10,18,13,06,15.80
2023,10,18,13,07,15.80
2023,10,18,13,08,15.80
2023,10,18,13,09,15.80
2023,10,18,13,10,15.70
2023,10,18,13,11,15.70
2023,10,18,13,12,15.70
2023,10,18,13,13,15.60
2023,10,18,13,14,15.60
2023,10,18,13,15,15.60
2023,10,18,13,16,15.60
2023,10,18,13,17,15.60
2023,10,18,13,18,15.60
2023,10,18,13,19,15.60
2023,10,18,13,20,15.60
2023,10,18,13,21,15.60
2023,10,18,13,22,15.70
2023,10,18,13,23,15.70
2023,10,18,13,24,15.70
2023,10,18,13,25,15.80
2023,10,18,13,26,15.80
2023,10,18,13,27,15.90
2023,10,18,13,28,15.90
2023,10,18,13,29,15.80
2023,10,18,13,30,15.80
2023,10,18,13,31,15.80
2023,10,18,13,32,15.80
2023,10,18,13,33,15.80
2023,10,18,13,34,15.80
2023,10,18,13,35,15.70
2023,10,18,13,36,15.70
2023,10,18,13,37,15.80
2023,10,18,13,38,15.80
2023,10,18,13,39,15.80
2023,10,18,13,40,15.80
2023,10,18,13,41,15.90
2023,10,18,13,42,15.90
2023,10,18,13,43,15.80
2023,10,18,13,44,15.80
2023,10,18,13,45,15.80
2023,10,18,13,46,15.80
2023,10,18,13,47,15.90
2023,10,18,13,48,15.90
2023,10,18,13,49,15.90
2023,10,18,13,50,15.90
2023,10,18,13,51,15.80
2023,10,18,13,52,15.70
2023,10,18,13,53,15.70
2023,10,18,13,54,15.70
2023,10,18,13,55,15.60
2023,10,18,13,56,15.60
2023,10,18,13,57,15.50
2023,10,18,13,58,15.40
2023,10,18,13,59,15.40
2023,10,18,14,00,15.30
2023,10,18,14,01,15.40
2023,10,18,14,02,15.40
2023,10,18,14,03,15.40
2023,10,18,14,04,15.40
2023,10,18,14,05,15.40
2023,10,18,14,06,15.40
2023,10,18,14,07,15.40
2023,10,18,14,08,15.40
2023,10,18,14,09,15.40
2023,10,18,14,10,15.50
2023,10,18,14,11,15.60
2023,10,18,14,12,15.70
2023,10,18,14,13,15.70
2023,10,18,14,14,15.80
2023,10,18,14,15,15.70
2023,10,18,14,16,15.70
2023,10,18,14,17,15.80
2023,10,18,14,18,15.80
2023,10,18,14,19,15.80
2023,10,18,14,20,15.80
2023,10,18,14,21,15.80
2023,10,18,14,22,15.80
2023,10,18,14,23,15.80
2023,10,18,14,24,15.80
2023,10,18,14,25,15.70
2023,10,18,14,26,15.80
2023,10,18,14,27,15.80
2023,10,18,14,28,15.80
2023,10,18,14,29,15.90
2023,10,18,14,30,15.90
2023,10,18,14,31,16.00
2023,10,18,14,32,16.00
2023,10,18,14,33,16.10
2023,10,18,14,34,16.20
2023,10,18,14,35,16.20
2023,10,18,14,36,16.30
2023,10,18,14,37,16.30
2023,10,18,14,38,16.40
2023,10,18,14,39,16.40
2023,10,18,14,40,16.50
2023,10,18,14,41,16.40
2023,10,18,14,42,16.40
2023,10,18,14,43,16.40
2023,10,18,14,44,16.30
2023,10,18,14,45,16.30
2023,10,18,14,46,16.20
2023,10,18,14,47,16.20
2023,10,18,14,48,16.20
2023,10,18,14,49,16.20
2023,10,18,14,50,16.20
2023,10,18,14,51,16.10
2023,10,18,14,52,16.10
2023,10,18,14,53,16.10
2023,10,18,14,54,16.10
2023,10,18,14,55,16.10
2023,10,18,14,56,16.20
2023,10,18,14,57,16.20
2023,10,18,14,58,16.20
2023,10,18,14,59,16.20
2023,10,18,15,00,16.20
2023,10,18,15,01,16.30
2023,10,18,15,02,16.30
2023,10,18,15,03,16.30
2023,10,18,15,04,16.30
2023,10,18,15,05,16.30
2023,10,18,15,06,16.30
2023,10,18,15,07,16.30
2023,10,18,15,08,16.30
2023,10,18,15,09,16.30
2023,10,18,15,10,16.20
2023,10,18,15,11,16.20
2023,10,18,15,12,16.20
2023,10,18,15,13,16.20
2023,10,18,15,14,16.20
2023,10,18,15,15,16.30
2023,10,18,15,16,16.30
2023,10,18,15,17,16.40
2023,10,18,15,18,16.40
2023,10,18,15,19,16.50
2023,10,18,15,20,16.60
2023,10,18,15,21,16.60
2023,10,18,15,22,16.60
2023,10,18,15,23,16.70
2023,10,18,15,24,16.70
2023,10,18,15,25,16.70
2023,10,18,15,26,16.70
2023,10,18,15,27,16.60
2023,10,18,15,28,16.60
2023,10,18,15,29,16.60
2023,10,18,15,30,16.50
2023,10,18,15,31,16.50
2023,10,18,15,32,16.50
2023,10,18,15,33,16.40
2023,10,18,15,34,16.40
2023,10,18,15,35,16.40
2023,10,18,15,36,16.40
2023,10,18,15,37,16.30
2023,10,18,15,38,16.30
2023,10,18,15,39,16.30
2023,10,18,15,40,16.30
2023,10,18,15,41,16.40
2023,10,18,15,42,16.40
2023,10,18,15,43,16.50
2023,10,18,15,44,16.60
2023,10,18,15,45,16.60
2023,10,18,15,46,16.70
2023,10,18,15,47,16.70
2023,10,18,15,48,16.70
2023,10,18,15,49,16.70
2023,10,18,15,50,16.70
2023,10,18,15,51,16.70
2023,10,18,15,52,16.60
2023,10,18,15,53,16.60
2023,10,18,15,54,16.60
2023,10,18,15,55,16.60
2023,10,18,15,56,16.60
2023,10,18,15,57,16.50
2023,10,18,15,58,16.40
2023,10,18,15,59,16.40
2023,10,18,16,00,16.40
2023,10,18,16,01,16.30
2023,10,18,16,02,16.30
2023,10,18,16,03,16.30
2023,10,18,16,04,16.30
2023,10,18,16,05,16.30
2023,10,18,16,06,16.30
2023,10,18,16,07,16.30
2023,10,18,16,08,16.30
2023,10,18,16,09,16.30
2023,10,18,16,10,16.30
2023,10,18,16,11,16.40
2023,10,18,16,12,16.40
2023,10,18,16,13,16.40
2023,10,18,16,14,16.50
2023,10,18,16,15,16.50
2023,10,18,16,16,16.50
2023,10,18,16,17,16.50
2023,10,18,16,18,16.50
2023,10,18,16,19,16.50
2023,10,18,16,20,16.50
2023,10,18,16,21,16.50
2023,10,18,16,22,16.40
2023,10,18,16,23,16.30
2023,10,18,16,24,16.30
2023,10,18,16,25,16.30
2023,10,18,16,26,16.30
2023,10,18,16,27,16.30
2023,10,18,16,28,16.30
2023,10,18,16,29,16.30
2023,10,18,16,30,16.10
2023,10,18,16,31,16.10
2023,10,18,16,32,16.00
2023,10,18,16,33,16.00
2023,10,18,16,34,15.90
2023,10,18,16,35,15.90
2023,10,18,16,36,15.90
2023,10,18,16,37,15.90
2023,10,18,16,38,15.80
2023,10,18,16,39,15.80
2023,10,18,16,40,15.80
2023,10,18,16,41,15.70
2023,10,18,16,42,15.70
2023,10,18,16,43,15.60
2023,10,18,16,44,15.50
2023,10,18,16,45,15.50
2023,10,18,16,46,15.40
2023,10,18,16,47,15.40
2023,10,18,16,48,15.40
2023,10,18,16,49,15.40
2023,10,18,16,50,15.30
2023,10,18,16,51,15.30
2023,10,18,16,52,15.20
2023,10,18,16,53,15.20
2023,10,18,16,54,15.20
2023,10,18,16,55,15.10
2023,10,18,16,56,15.10
2023,10,18,16,57,15.10
2023,10,18,16,58,15.10
2023,10,18,16,59,15.10
2023,10,18,17,00,15.00
2023,10,18,17,01,15.00
2023,10,18,17,02,15.00
2023,10,18,17,03,15.00
2023,10,18,17,04,14.90
2023,10,18,17,05,14.90
2023,10,18,17,06,14.90
2023,10,18,17,07,14.80
2023,10,18,17,08,14.80
2023,10,18,17,09,14.70
2023,10,18,17,10,14.70
2023,10,18,17,11,14.70
2023,10,18,17,12,14.70
2023,10,18,17,13,14.60
2023,10,18,17,14,14.60
2023,10,18,17,15,14.60
2023,10,18,17,16,14.60
2023,10,18,17,17,14.60
2023,10,18,17,18,14.60
2023,10,18,17,19,14.60
2023,10,18,17,20,14.60
2023,10,18,17,21,14.60
2023,10,18,17,22,14.50
2023,10,18,17,23,14.50
2023,10,18,17,24,14.50
2023,10,18,17,25,14.40
2023,10,18,17,26,14.40
2023,10,18,17,27,14.40
2023,10,18,17,28,14.40
2023,10,18,17,29,14.40
2023,10,18,17,30,14.40
2023,10,18,17,31,14.40
2023,10,18,17,32,14.40
2023,10,18,17,33,14.30
2023,10,18,17,34,14.30
2023,10,18,17,35,14.30
2023,10,18,17,36,14.40
2023,10,18,17,37,14.40
2023,10,18,17,38,14.30
2023,10,18,17,39,14.30
2023,10,18,17,40,14.30
2023,10,18,17,41,14.30
2023,10,18,17,42,14.30
2023,10,18,17,43,14.30
2023,10,18,17,44,14.30
2023,10,18,17,45,14.30
2023,10,18,17,46,14.30
2023,10,18,17,47,14.20
2023,10,18,17,48,14.20
2023,10,18,17,49,14.20
2023,10,18,17,50,14.20
2023,10,18,17,51,14.20
2023,10,18,17,52,14.20
2023,10,18,17,53,13.70
2023,10,18,17,54,13.60
2023,10,18,17,55,13.60
2023,10,18,17,56,13.60
2023,10,18,17,57,13.60
2023,10,18,17,58,13.60
2023,10,18,17,59,13.60
2023,10,18,18,00,13.70
2023,10,18,18,01,22.70
2023,10,18,18,02,28.40
2023,10,18,18,03,28.40
2023,10,18,18,04,28.40
2023,10,18,18,05,28.40
2023,10,18,18,06,25.50
2023,10,18,18,07,13.80
2023,10,18,18,08,13.80
2023,10,18,18,09,13.80
2023,10,18,18,10,13.80
2023,10,18,18,11,13.80
2023,10,18,18,12,13.80
2023,10,18,18,13,13.80
2023,10,18,18,14,13.80
2023,10,18,18,15,13.80
2023,10,18,18,16,13.80
2023,10,18,18,17,13.80
2023,10,18,18,18,13.80
